Flag for U.S.A. Weather past 2 weeks in Berkeley, California, U.S.A.

Now
56 °F

Partly sunny.


Feels Like: 54 °F
Forecast: 49 / 58 °F
Wind: 8 mph from Southwest

Location: Metro Oakland International Airport

Current Time: Mar 2, 2015 at 11:44:24 AM

Latest Report: Mar 2, 2015 at 10:53 AM


Visibility: 10 mi

Pressure: 29.83 "Hg

Humidity: 62%

Dew point: 43 °F

Location of BerkeleyLocation

Historic Weather in Berkeley — Graph

°F

Berkeley temperature yesterday

Maximum temperature yesterday: 63 °F (at 3:53 PM)
Minimum temperature yesterday: 44 °F (at 1:53 AM)
Average temperature yesterday: 53 °F

Past Weeks' High & Low Weather Summary

 TemperatureHumidityPressure
High70 °F (Feb 16, 1:53 PM)100% (Feb 22, 7:53 AM)30.36 "Hg (Feb 22, 7:53 AM)
Low40 °F (Feb 24, 3:53 AM)18% (Feb 23, 8:53 AM)29.72 "Hg (Feb 28, 3:53 AM)
Average55 °F69%30.02 "Hg
* Reported Feb 15 9:53 AM — Mar 2 9:53 AM, Berkeley, Weather by CustomWeather, © 2015

Note: Actual official high and low records may vary slightly from our data, if they occured in-between our weather recording intervals... More about our weather records

Advertising

Berkeley weather history for previous 24 hours

 ConditionsComfort  
Time TempWeatherWind HumidityBarometerVisibility
9:53 AM
Mon, Mar 2
54 °FMore clouds than sun.10 mph74%29.83 "Hg10 mi
8:53 AM53 °FMostly cloudy.10 mph80%29.83 "Hg10 mi
7:53 AM51 °FCloudy.10 mph80%29.83 "Hg10 mi
6:53 AM51 °FOvercast.9 mph83%29.83 "Hg10 mi
5:53 AM49 °FMostly cloudy.8 mph86%29.83 "Hg10 mi
4:53 AM49 °FPassing clouds.3 mph84%29.84 "Hg10 mi
3:53 AM48 °FPassing clouds.9 mph83%29.84 "Hg10 mi
2:53 AM48 °FPassing clouds.3 mph89%29.87 "Hg10 mi
1:53 AM46 °FPassing clouds.3 mph86%29.89 "Hg10 mi
12:53 AM46 °FPassing clouds.No wind86%29.91 "Hg10 mi
11:53 PM
Sun, Mar 1
47 °FClear.No wind86%29.92 "Hg10 mi
10:53 PM48 °FClear.No wind86%29.93 "Hg10 mi
9:53 PM54 °FClear.3 mph74%29.93 "Hg10 mi
8:53 PM55 °FClear.8 mph72%29.94 "Hg10 mi
7:53 PM56 °FPassing clouds.12 mph65%29.93 "Hg10 mi
6:53 PM56 °FPassing clouds.16 mph67%29.93 "Hg10 mi
5:53 PM58 °FPassing clouds.14 mph67%29.91 "Hg10 mi
4:53 PM61 °FPassing clouds.15 mph56%29.91 "Hg10 mi
3:53 PM63 °FPassing clouds.13 mph43%29.91 "Hg10 mi
2:53 PM62 °FPassing clouds.9 mph43%29.92 "Hg10 mi
1:53 PM61 °FPassing clouds.12 mph44%29.93 "Hg10 mi
12:53 PM60 °FPassing clouds.10 mph41%29.96 "Hg10 mi
11:53 AM59 °FPassing clouds.9 mph42%29.98 "Hg10 mi
Weather by CustomWeather, © 2015

See weather overviewHow to use our weather pages